This is the latest recevied weather packets stored in our database for station/object IZ1OSY-3. If no packets are shown the sender has not sent any weather packets the latest 10 day(s).
| Time | Temp. | Humidity | Pressure | Rain* | Wind** | Luminosity | Snow |
|---|---|---|---|---|---|---|---|
| 1777877917 | 10° C | 87% | 1017.6 hPa | - | - | - | - |
| 1777877621 | 10° C | 88% | 1017.4 hPa | - | - | - | - |
| 1777876716 | 10° C | 86% | 1017.2 hPa | - | - | - | - |
| 1777876420 | 10° C | 75% | 1017.2 hPa | - | - | - | - |
| 1777875515 | 10° C | 65% | 1017.1 hPa | - | - | - | - |
| 1777875219 | 10° C | 63% | 1017.1 hPa | - | - | - | - |
| 1777874314 | 10° C | 60% | 1017.1 hPa | - | - | - | - |
| 1777873114 | 10° C | 65% | 1017.3 hPa | - | - | - | - |
| 1777872817 | 10° C | 71% | 1017.3 hPa | - | - | - | - |
| 1777871913 | 10° C | 73% | 1017.6 hPa | - | - | - | - |
| 1777871616 | 10° C | 73% | 1017.7 hPa | - | - | - | - |
| 1777870712 | 10° C | 62% | 1017.8 hPa | - | - | - | - |
| 1777870416 | 10° C | 60% | 1017.7 hPa | - | - | - | - |
| 1777869511 | 10° C | 59% | 1017.5 hPa | - | - | - | - |
| 1777869215 | 10° C | 58% | 1017.6 hPa | - | - | - | - |
| 1777868310 | 10.56° C | 57% | 1017.5 hPa | - | - | - | - |
| 1777868014 | 10.56° C | 58% | 1017.5 hPa | - | - | - | - |
| 1777867110 | 10° C | 56% | 1017.4 hPa | - | - | - | - |
| 1777865909 | 10° C | 57% | 1017.4 hPa | - | - | - | - |
| 1777865612 | 10° C | 53% | 1017.4 hPa | - | - | - | - |
| 1777864708 | 10.56° C | 43% | 1017.5 hPa | - | - | - | - |
| 1777864411 | 10.56° C | 42% | 1017.5 hPa | - | - | - | - |
| 1777863507 | 10.56° C | 40% | 1017.4 hPa | - | - | - | - |
| 1777863211 | 10.56° C | 39% | 1017.5 hPa | - | - | - | - |
| 1777862306 | 10.56° C | 40% | 1017.6 hPa | - | - | - | - |
* Rain since midnight (hover to see other rain measurements)
** Current wind speed in m/s (hover to see current wind gust speed)